Flag for U.S.A. Weather past 2 weeks in Mesquite, Texas, U.S.A.

Now
91 °F

Sunny.


Feels Like: 97 °F
Forecast: 77 / 93 °F
Wind: 6 mph from Southwest

Location: Mesquite Metro Airport

Current Time: Jun 30, 2015 at 5:11:34 PM

Latest Report: Jun 30, 2015 at 3:50 PM


Visibility: 10 mi

Pressure: 29.96 "Hg

Humidity: 49%

Dew point: 70 °F

Location of MesquiteLocation

Historic Weather in Mesquite — Graph

°F

Mesquite temperature yesterday

Maximum temperature yesterday: 93 °F (at 2:50 PM)
Minimum temperature yesterday: 72 °F (at 2:15 AM)
Average temperature yesterday: 80 °F

Past Weeks' High & Low Weather Summary

 TemperatureHumidityPressure
High93 °F (Jun 18, 3:50 PM)100% (Jun 17, 6:50 AM)30.19 "Hg (Jun 17, 6:50 AM)
Low69 °F (Jun 28, 4:55 AM)24% (Jun 28, 5:50 PM)29.74 "Hg (Jun 17, 3:50 PM)
Average79 °F80%30.00 "Hg
* Reported Jun 15 3:50 PM — Jun 30 3:50 PM, Mesquite, Weather by CustomWeather, © 2015

Note: Actual official high and low records may vary slightly from our data, if they occured in-between our weather recording intervals... More about our weather records

Advertising

Mesquite weather history for previous 24 hours

 ConditionsComfort  
Time TempWeatherWind HumidityBarometerVisibility
3:50 PM
Tue, Jun 30
91 °FSunny.6 mph49%29.96 "Hg10 mi
2:50 PM91 °FSunny.7 mph49%29.98 "Hg10 mi
1:50 PM91 °FSunny.5 mph49%30.01 "Hg10 mi
12:50 PM90 °FSunny.9 mph52%30.02 "Hg10 mi
11:50 AM88 °FSunny.6 mph52%30.04 "Hg10 mi
10:50 AM86 °FSunny.8 mph46%30.04 "Hg10 mi
9:50 AM81 °FSunny.7 mph62%30.03 "Hg10 mi
8:50 AM77 °FSunny.8 mph69%30.05 "Hg10 mi
7:50 AM73 °FScattered clouds.7 mph74%30.01 "Hg10 mi
6:50 AM72 °FPassing clouds.3 mph83%30.02 "Hg10 mi
6:15 AM71 °FClear.13 mph83%29.99 "Hg10 mi
5:55 AM72 °FClear.13 mph76%29.98 "Hg10 mi
5:35 AM72 °FClear.16 mph79%29.98 "Hg10 mi
5:15 AM71 °FPassing clouds.13 mph86%29.96 "Hg10 mi
4:55 AM71 °FPartly cloudy.16 mph88%29.98 "Hg10 mi
4:35 AM70 °FPartly cloudy.15 mph96%29.99 "Hg10 mi
4:15 AM70 °FOvercast.10 mph96%30.02 "Hg7 mi
3:55 AM70 °FOvercast.3 mph95%30.04 "Hg1 mi
3:15 AM73 °FMostly cloudy.18 mph74%30.02 "Hg10 mi
2:55 AM75 °FPassing clouds.17 mph70%30.03 "Hg3 mi
2:15 AM79 °FClear.3 mph86%29.99 "Hg10 mi
1:55 AM78 °FClear.3 mph88%30.00 "Hg5 mi
1:35 AM78 °FClear.5 mph90%29.99 "Hg2 mi
1:15 AM78 °FClear.6 mph91%29.99 "Hg4 mi
12:55 AM78 °FClear.5 mph90%29.99 "Hg2 mi
12:35 AM78 °FDense fog.6 mph88%29.99 "Hg2 mi
12:15 AM78 °FDense fog.6 mph89%29.97 "Hg1 mi
11:55 PM
Mon, Jun 29
80 °FDense fog.5 mph83%29.97 "Hg1 mi
11:15 PM80 °FClear.5 mph79%29.97 "Hg7 mi
10:55 PM80 °FClear.5 mph81%29.97 "Hg2 mi
10:35 PM81 °FClear.5 mph78%29.97 "Hg2 mi
9:55 PM83 °FDense fog.5 mph68%29.95 "Hg1 mi
9:35 PM83 °FSunny.7 mph69%29.94 "Hg4 mi
9:15 PM84 °FSunny.7 mph65%29.93 "Hg7 mi
8:55 PM85 °FSunny.9 mph63%29.92 "Hg10 mi
8:15 PM87 °FSunny.8 mph59%29.92 "Hg10 mi
7:50 PM90 °FScattered clouds.12 mph55%29.90 "Hg10 mi
6:50 PM93 °FPartly sunny.6 mph39%29.90 "Hg10 mi
5:50 PM93 °FSunny.5 mph41%29.91 "Hg10 mi
Weather by CustomWeather, © 2015

See weather overviewHow to use our weather pages